Weather History for Key West, FL

Change the Weather History Date:

Sunday, August 24, 2014

  Actual Average Record
Temperature  
Mean Temperature 87 °F 84 °F  
Max Temperature 93 °F 89 °F 94 °F (1956)
Min Temperature 81 °F 79 °F 70 °F (1889)
Degree Days  
Heating Degree Days 0 0  
Month to date heating degree days 0 0  
Since 1 June heating degree days 0 0  
Since 1 July heating degree days 0 0  
Cooling Degree Days 22 19  
Month to date cooling degree days 522 473  
Year to date cooling degree days 3369 3058  
Since 1 June cooling degree days 1747 1628  
Growing Degree Days 37 (Base 50)    
Moisture  
Dew Point 75 °F    
Average Humidity 68    
Maximum Humidity 79    
Minimum Humidity 56    
Precipitation  
Precipitation 0.00 in 0.20 in 1.61 in (1945)
Month to date precipitation 2.86 3.98  
Year to date precipitation 20.95 22.27  
Snow  
Snow 0.00 in - - ()
Month to date snowfall 0.0  
Since 1 June snowfall 0.0  
Since 1 July snowfall 0.0  
Snow Depth 0.00 in    
Sea Level Pressure  
Sea Level Pressure 29.83 in    
Wind  
Wind Speed 6 mph (NNE)    
Max Wind Speed 15 mph    
Max Gust Speed 21 mph    
Visibility 10 miles    
Events Thunderstorm    
T = Trace of Precipitation, MM = Missing Value Source: NWS Daily Summary

Daily Weather History Graph

Daily Weather History Graph

Search for Another Location

Airport:

Trip Planner

Search our weather history database for the weather conditions in past years. The results will help you decide how hot, cold, wet, or windy it might be!

Date:

Astronomy

Aug. 24, 2014 Rise Set
Actual Time 7:05 AM EDT 7:53 PM EDT
Civil Twilight 6:41 AM EDT 8:16 PM EDT
Nautical Twilight 6:14 AM EDT 8:43 PM EDT
Astronomical Twilight 5:46 AM EDT 9:11 PM EDT
Moon 6:14 AM EDT 7:13 PM EDT
Length of Visible Light 13h 34m
Length of Day
12h 47m
Waning Crescent, 1% of the Moon is Illuminated
Aug 24
Waning Crescent
Aug 25
New
Sep 2
First Quarter
Sep 8
Full
Sep 15
Last Quarter

Hourly Weather History & Observations

Time (EDT) Temp. Heat Index Dew Point Humidity Pressure Visibility Wind Dir Wind Speed Gust Speed Precip Events Conditions
12:53 AM 86.0 °F 93.8 °F 73.9 °F 67% 29.88 in 10.0 mi East 10.4 mph - N/A   Partly Cloudy
1:10 AM 86.0 °F 93.8 °F 73.9 °F 67% 29.88 in 10.0 mi East 8.1 mph - N/A Thunderstorm Clear
1:29 AM 86.0 °F 93.8 °F 73.9 °F 67% 29.87 in 10.0 mi East 6.9 mph - N/A   Clear
1:53 AM 86.0 °F 93.8 °F 73.9 °F 67% 29.87 in 10.0 mi ENE 4.6 mph - N/A   Clear
2:53 AM 84.9 °F 92.1 °F 73.9 °F 69% 29.86 in 10.0 mi ENE 3.5 mph - N/A   Clear
3:53 AM 84.9 °F 93.3 °F 75.0 °F 72% 29.84 in 10.0 mi Calm Calm - N/A   Clear
4:53 AM 84.0 °F 90.2 °F 73.0 °F 69% 29.83 in 10.0 mi Calm Calm - N/A   Clear
5:53 AM 82.9 °F 90.2 °F 75.0 °F 77% 29.83 in 10.0 mi North 3.5 mph - N/A   Clear
6:53 AM 82.0 °F 88.6 °F 75.0 °F 79% 29.84 in 10.0 mi Calm Calm - N/A   Clear
7:53 AM 84.9 °F 94.1 °F 75.9 °F 74% 29.85 in 10.0 mi Calm Calm - N/A   Clear
8:53 AM 88.0 °F 97.5 °F 75.0 °F 65% 29.86 in 10.0 mi NNW 5.8 mph - N/A   Clear
9:53 AM 88.0 °F 97.5 °F 75.0 °F 65% 29.86 in 10.0 mi WNW 5.8 mph - N/A   Clear
10:53 AM 89.1 °F 99.1 °F 75.0 °F 63% 29.87 in 10.0 mi NNW 8.1 mph - N/A   Clear
11:53 AM 91.9 °F 103.2 °F 75.0 °F 58% 29.87 in 10.0 mi North 8.1 mph - N/A   Clear
12:53 PM 91.0 °F 101.6 °F 75.0 °F 59% 29.86 in 10.0 mi North 10.4 mph - N/A   Partly Cloudy
1:53 PM 91.9 °F 101.3 °F 73.9 °F 55% 29.85 in 10.0 mi North 11.5 mph - N/A   Clear
2:53 PM 91.9 °F 103.2 °F 75.0 °F 58% 29.83 in 10.0 mi NW 10.4 mph - N/A   Clear
3:53 PM 91.9 °F 103.2 °F 75.0 °F 58% 29.80 in 10.0 mi North 9.2 mph - N/A   Clear
4:53 PM 91.9 °F 103.2 °F 75.0 °F 58% 29.79 in 10.0 mi NNE 9.2 mph - N/A   Clear
5:53 PM 91.9 °F 103.2 °F 75.0 °F 58% 29.77 in 10.0 mi North 8.1 mph - N/A   Clear
6:53 PM 90.0 °F 100.2 °F 75.0 °F 61% 29.77 in 10.0 mi North 9.2 mph - N/A   Clear
7:53 PM 89.1 °F 100.2 °F 75.9 °F 65% 29.77 in 10.0 mi NNW 8.1 mph - N/A   Clear
8:53 PM 88.0 °F 100.2 °F 77.0 °F 70% 29.79 in 10.0 mi NW 6.9 mph - N/A   Clear
9:53 PM 89.6 °F 102.2 °F 77.0 °F 66% 29.80 in 10.0 mi NW 10.4 mph - N/A   Scattered Clouds
10:53 PM 89.6 °F 102.2 °F 77.0 °F 66% 29.81 in 10.0 mi NNW 9.2 mph - N/A   Mostly Cloudy
11:27 PM 84.9 °F 92.1 °F 73.9 °F 69% 29.82 in 10.0 mi ENE 12.7 mph 20.7 mph N/A   Overcast
11:45 PM 82.9 °F 90.2 °F 75.0 °F 77% 29.81 in 10.0 mi East 4.6 mph - N/A   Mostly Cloudy
11:53 PM 82.9 °F 90.2 °F 75.0 °F 77% 29.82 in 10.0 mi ESE 9.2 mph - N/A   Scattered Clouds